When you browse on this site, cookies collect data to enhance your experience and personalize the content and advertising you see.
Visit our Privacy Policy to learn more. By continuing to use the site, you agree to this use of cookies and data.
  • en France
  • Liste des pays
  • À 7 jours
  • Température de l'eau
  • Carte satellitaire
  • Carte météo
  • Widgets météo
  • user-avatar
    Se connecter

    Météo par heure à Burano

    Ce jour, 22 Juillet, Lundi

    Heure Température Précipitation Vent Pression Humidité
    00:00 +25°C° 0 mm 2 m/s 766 mmHg 84%
    01:00 +24°C° 0 mm 2 m/s 766 mmHg 86%
    02:00 +24°C° 0 mm 2 m/s 766 mmHg 87%
    03:00 +22°C° 0 mm 3 m/s 766 mmHg 88%
    04:00 +22°C° 0 mm 3 m/s 766 mmHg 88%
    05:00 +24°C° 0 mm 3 m/s 766 mmHg 84%
    06:00 +24°C° 0 mm 3 m/s 766 mmHg 80%
    07:00 +25°C° 0 mm 3 m/s 766 mmHg 76%
    08:00 +26°C° 0 mm 2 m/s 766 mmHg 70%
    09:00 +28°C° 0 mm 2 m/s 766 mmHg 65%
    10:00 +29°C° 0 mm 2 m/s 766 mmHg 60%
    11:00 +30°C° 0 mm 1 m/s 766 mmHg 57%
    12:00 +31°C° 0 mm 1 m/s 766 mmHg 55%
    13:00 +32°C° 0 mm 1 m/s 765 mmHg 53%
    14:00 +32°C° 0 mm 1 m/s 765 mmHg 53%
    15:00 +32°C° 0 mm 1 m/s 765 mmHg 53%
    16:00 +32°C° 0 mm 1 m/s 765 mmHg 53%
    17:00 +31°C° 0 mm 1 m/s 765 mmHg 58%
    18:00 +30°C° 0 mm 1 m/s 765 mmHg 63%
    19:00 +27°C° 0 mm 0 m/s 765 mmHg 68%
    20:00 +26°C° 0 mm 0 m/s 765 mmHg 69%
    21:00 +25°C° 0 mm 0 m/s 765 mmHg 70%
    22:00 +25°C° 0 mm 0 m/s 766 mmHg 71%
    23:00 +26°C° 0 mm 1 m/s 766 mmHg 72%

    Demain, 23 Juillet, Mardi

    Heure Température Précipitation Vent Pression Humidité
    00:00 +26°C° 0 mm 2 m/s 766 mmHg 74%
    01:00 +25°C° 0 mm 2 m/s 766 mmHg 75%
    02:00 +25°C° 0 mm 2 m/s 765 mmHg 76%
    03:00 +25°C° 0 mm 2 m/s 765 mmHg 77%
    04:00 +24°C° 0 mm 2 m/s 765 mmHg 78%
    05:00 +25°C° 0 mm 2 m/s 765 mmHg 76%
    06:00 +26°C° 0 mm 2 m/s 765 mmHg 73%
    07:00 +27°C° 0 mm 2 m/s 765 mmHg 71%
    08:00 +28°C° 0 mm 2 m/s 765 mmHg 67%
    09:00 +29°C° 0 mm 2 m/s 765 mmHg 63%
    10:00 +31°C° 0 mm 2 m/s 765 mmHg 59%
    11:00 +31°C° 0 mm 2 m/s 765 mmHg 56%
    12:00 +32°C° 0 mm 2 m/s 764 mmHg 54%
    13:00 +34°C° 0 mm 2 m/s 764 mmHg 51%
    14:00 +32°C° 0 mm 2 m/s 764 mmHg 51%
    15:00 +32°C° 0 mm 2 m/s 763 mmHg 51%
    16:00 +32°C° 0 mm 2 m/s 763 mmHg 51%
    17:00 +31°C° 0 mm 2 m/s 763 mmHg 55%
    18:00 +30°C° 0 mm 2 m/s 763 mmHg 59%
    19:00 +29°C° 0 mm 2 m/s 763 mmHg 63%
    20:00 +28°C° 0 mm 1 m/s 763 mmHg 63%
    21:00 +27°C° 0 mm 1 m/s 764 mmHg 63%
    22:00 +25°C° 0 mm 0 m/s 764 mmHg 63%
    23:00 +26°C° 0 mm 1 m/s 764 mmHg 64%

    Après-demain, 24 Juillet, Mercredi

    Heure Température Précipitation Vent Pression Humidité
    00:00 +26°C° 0 mm 1 m/s 764 mmHg 65%
    01:00 +25°C° 0 mm 2 m/s 764 mmHg 66%
    02:00 +25°C° 0 mm 2 m/s 763 mmHg 68%
    03:00 +25°C° 0 mm 2 m/s 763 mmHg 71%
    04:00 +24°C° 0 mm 2 m/s 763 mmHg 73%
    05:00 +25°C° 0 mm 2 m/s 763 mmHg 73%
    06:00 +26°C° 0 mm 2 m/s 763 mmHg 73%
    07:00 +27°C° 0 mm 2 m/s 763 mmHg 72%
    08:00 +28°C° 0 mm 1 m/s 763 mmHg 67%
    09:00 +29°C° 0 mm 1 m/s 763 mmHg 62%
    10:00 +31°C° 0 mm 1 m/s 763 mmHg 57%
    11:00 +31°C° 0 mm 1 m/s 763 mmHg 54%
    12:00 +32°C° 0 mm 2 m/s 762 mmHg 52%
    13:00 +32°C° 0 mm 2 m/s 762 mmHg 49%
    14:00 +32°C° 0 mm 2 m/s 762 mmHg 51%
    15:00 +32°C° 0 mm 2 m/s 761 mmHg 52%
    16:00 +33°C° 0 mm 3 m/s 761 mmHg 53%
    17:00 +31°C° 0 mm 3 m/s 761 mmHg 58%
    18:00 +30°C° 0 mm 2 m/s 761 mmHg 62%
    19:00 +29°C° 0 mm 2 m/s 762 mmHg 67%
    20:00 +28°C° 0 mm 2 m/s 762 mmHg 67%
    21:00 +27°C° 0 mm 1 m/s 762 mmHg 68%
    22:00 +25°C° 0 mm 0 m/s 763 mmHg 68%
    23:00 +26°C° 0 mm 1 m/s 763 mmHg 69%

    25 Juillet, Jeudi

    Heure Température Précipitation Vent Pression Humidité
    00:00 +26°C° 0 mm 1 m/s 763 mmHg 70%
    01:00 +26°C° 0 mm 1 m/s 762 mmHg 72%
    02:00 +25°C° 0 mm 1 m/s 762 mmHg 74%
    03:00 +25°C° 0 mm 1 m/s 762 mmHg 76%
    04:00 +25°C° 0 mm 1 m/s 762 mmHg 78%
    05:00 +26°C° 0 mm 1 m/s 762 mmHg 77%
    06:00 +27°C° 0 mm 1 m/s 762 mmHg 76%
    07:00 +28°C° 0 mm 1 m/s 762 mmHg 74%
    08:00 +29°C° 0 mm 1 m/s 762 mmHg 70%
    09:00 +30°C° 0 mm 1 m/s 762 mmHg 66%
    10:00 +31°C° 0 mm 1 m/s 762 mmHg 61%
    11:00 +32°C° 0 mm 1 m/s 762 mmHg 59%
    12:00 +32°C° 0 mm 1 m/s 762 mmHg 57%
    13:00 +34°C° 0 mm 2 m/s 761 mmHg 55%
    14:00 +34°C° 0 mm 2 m/s 761 mmHg 55%
    15:00 +34°C° 0 mm 2 m/s 761 mmHg 54%
    16:00 +34°C° 0 mm 2 m/s 761 mmHg 53%
    17:00 +32°C° 0 mm 2 m/s 761 mmHg 58%
    18:00 +31°C° 0 mm 2 m/s 761 mmHg 62%
    19:00 +30°C° 0 mm 2 m/s 761 mmHg 66%
    20:00 +29°C° 0 mm 2 m/s 761 mmHg 67%
    21:00 +28°C° 0 mm 1 m/s 761 mmHg 68%
    22:00 +27°C° 0 mm 1 m/s 761 mmHg 68%
    23:00 +27°C° 0 mm 1 m/s 761 mmHg 70%

    26 Juillet, Vendredi

    Heure Température Précipitation Vent Pression Humidité
    00:00 +27°C° 0 mm 1 m/s 761 mmHg 71%
    01:00 +26°C° 0 mm 1 m/s 761 mmHg 73%
    02:00 +26°C° 0 mm 1 m/s 761 mmHg 75%
    03:00 +26°C° 0 mm 1 m/s 760 mmHg 77%
    04:00 +25°C° 0 mm 1 m/s 760 mmHg 79%
    05:00 +26°C° 0 mm 1 m/s 760 mmHg 78%
    06:00 +27°C° 0 mm 1 m/s 760 mmHg 77%
    07:00 +27°C° 0 mm 2 m/s 760 mmHg 75%
    08:00 +29°C° 0 mm 2 m/s 760 mmHg 70%
    09:00 +30°C° 0 mm 2 m/s 760 mmHg 65%
    10:00 +31°C° 0 mm 2 m/s 760 mmHg 60%
    11:00 +31°C° 0 mm 2 m/s 759 mmHg 58%
    12:00 +33°C° 0 mm 3 m/s 759 mmHg 55%
    13:00 +33°C° 0 mm 3 m/s 759 mmHg 52%
    14:00 +33°C° 0 mm 3 m/s 758 mmHg 53%
    15:00 +33°C° 0 mm 3 m/s 758 mmHg 53%
    16:00 +33°C° 0 mm 3 m/s 758 mmHg 54%
    17:00 +31°C° 0 mm 3 m/s 758 mmHg 58%
    18:00 +30°C° 0 mm 3 m/s 758 mmHg 62%
    19:00 +29°C° 0 mm 2 m/s 758 mmHg 66%
    20:00 +28°C° 0 mm 2 m/s 758 mmHg 68%
    21:00 +27°C° 0 mm 1 m/s 758 mmHg 70%
    22:00 +26°C° 0 mm 1 m/s 758 mmHg 72%
    23:00 +26°C° 0 mm 1 m/s 758 mmHg 72%

    27 Juillet, Samedi

    Heure Température Précipitation Vent Pression Humidité
    00:00 +26°C° 0 mm 2 m/s 758 mmHg 71%
    01:00 +25°C° 0 mm 2 m/s 758 mmHg 71%
    02:00 +25°C° 0 mm 2 m/s 758 mmHg 72%
    03:00 +25°C° 0 mm 2 m/s 757 mmHg 74%
    04:00 +24°C° 0 mm 3 m/s 757 mmHg 75%
    05:00 +25°C° 0 mm 3 m/s 757 mmHg 75%
    06:00 +26°C° 0 mm 2 m/s 757 mmHg 74%
    07:00 +26°C° 0 mm 2 m/s 757 mmHg 73%
    08:00 +28°C° 0 mm 3 m/s 757 mmHg 68%
    09:00 +29°C° 0 mm 3 m/s 757 mmHg 63%
    10:00 +30°C° 0 mm 3 m/s 757 mmHg 58%
    11:00 +30°C° 0 mm 3 m/s 756 mmHg 57%
    12:00 +31°C° 0 mm 3 m/s 756 mmHg 57%
    13:00 +31°C° 0 mm 2 m/s 756 mmHg 57%
    14:00 +31°C° 0 mm 2 m/s 755 mmHg 57%
    15:00 +31°C° 0 mm 3 m/s 755 mmHg 57%
    16:00 +33°C° 0 mm 3 m/s 755 mmHg 57%
    17:00 +30°C° 0.9 mm 3 m/s 755 mmHg 65%
    18:00 +28°C° 0.9 mm 4 m/s 755 mmHg 73%
    19:00 +27°C° 0.9 mm 5 m/s 755 mmHg 82%
    20:00 +25°C° 2.7 mm 5 m/s 755 mmHg 84%
    21:00 +22°C° 2.7 mm 5 m/s 756 mmHg 86%
    22:00 +21°C° 2.7 mm 5 m/s 756 mmHg 87%
    23:00 +20°C° 0.5 mm 5 m/s 757 mmHg 88%
    Voir plus